User: anonymous   Login
Location: Unspecified
(0.0000°N, 0.0000°E)
Time: 13:34:56
(UTC+00:00)
Language:

Meteor 2-12 - Orbit

View from above orbital plane
View from above orbital plane
View from above satellite
View from above satellite

Ground track
Ground track

The orbit data is extracted from the following two-line orbital elements,

1 15516U 85013A   18112.71935107  .00000006  00000-0 -77567-5 0  9995
2 15516  82.5341 187.6767 0015874  20.4994 339.6801 13.85619904679703
Epoch (UTC): 22 April 2018 17:15:51
Eccentricity: 0.0015874
inclination: 82.5341°
perigee height: 932 km
apogee height: 955 km
right ascension of ascending node: 187.6767°
argument of perigee: 20.4994°
revolutions per day: 13.85619904
mean anomaly at epoch: 339.6801°
orbit number at epoch: 67970

The dashed part of the orbit path shows where the satellite is in the earth's shadow,  

DLR